• In Österreich
  • Länderverzeichnis
  • Für 7 Tage
  • Wassertemperatur
  • Satellitenkarten
  • Wetterkarte
  • News
  • Widgets
  • user-avatar
    Anmelden

    Stündliche Wetter Roli

    Heute, 14 August, Dienstag

    Zeit Temperatur Niederschläge Wind Luftdruck Luftfeuchtigkeit
    00:00 +24°C° 0 mm 1 m/S 752 mmHg 88%
    01:00 +24°C° 0 mm 1 m/S 752 mmHg 90%
    02:00 +24°C° 0,1 mm 1 m/S 752 mmHg 90%
    03:00 +23°C° 0,1 mm 1 m/S 752 mmHg 90%
    04:00 +23°C° 0,1 mm 1 m/S 752 mmHg 91%
    05:00 +23°C° 0 mm 1 m/S 752 mmHg 88%
    06:00 +24°C° 0 mm 1 m/S 752 mmHg 86%
    07:00 +24°C° 0 mm 1 m/S 753 mmHg 84%
    08:00 +26°C° 0 mm 2 m/S 753 mmHg 75%
    09:00 +28°C° 0 mm 2 m/S 753 mmHg 66%
    10:00 +30°C° 0 mm 2 m/S 753 mmHg 57%
    11:00 +31°C° 0,1 mm 2 m/S 753 mmHg 53%
    12:00 +32°C° 0,1 mm 2 m/S 753 mmHg 49%
    13:00 +34°C° 0,1 mm 3 m/S 752 mmHg 45%
    14:00 +34°C° 0 mm 3 m/S 752 mmHg 46%
    15:00 +34°C° 0 mm 3 m/S 752 mmHg 48%
    16:00 +34°C° 0 mm 3 m/S 751 mmHg 49%
    17:00 +31°C° 0 mm 2 m/S 751 mmHg 54%
    18:00 +30°C° 0 mm 2 m/S 751 mmHg 59%
    19:00 +29°C° 0 mm 2 m/S 752 mmHg 64%
    20:00 +28°C° 0 mm 2 m/S 752 mmHg 65%
    21:00 +27°C° 0 mm 2 m/S 752 mmHg 67%
    22:00 +27°C° 0 mm 2 m/S 753 mmHg 68%
    23:00 +26°C° 0 mm 2 m/S 753 mmHg 70%

    Morgen, 15 August, Mittwoch

    Zeit Temperatur Niederschläge Wind Luftdruck Luftfeuchtigkeit
    00:00 +26°C° 0 mm 2 m/S 753 mmHg 72%
    01:00 +26°C° 0 mm 2 m/S 753 mmHg 73%
    02:00 +25°C° 0 mm 2 m/S 753 mmHg 74%
    03:00 +25°C° 0 mm 1 m/S 753 mmHg 75%
    04:00 +24°C° 0 mm 1 m/S 753 mmHg 76%
    05:00 +25°C° 0 mm 1 m/S 753 mmHg 75%
    06:00 +25°C° 0 mm 1 m/S 753 mmHg 74%
    07:00 +26°C° 0 mm 1 m/S 754 mmHg 74%
    08:00 +28°C° 0 mm 1 m/S 754 mmHg 67%
    09:00 +28°C° 0 mm 0 m/S 754 mmHg 60%
    10:00 +30°C° 0 mm 0 m/S 755 mmHg 54%
    11:00 +33°C° 0 mm 1 m/S 754 mmHg 51%
    12:00 +34°C° 0 mm 1 m/S 754 mmHg 47%
    13:00 +34°C° 0 mm 1 m/S 754 mmHg 44%
    14:00 +34°C° 0 mm 1 m/S 754 mmHg 45%
    15:00 +34°C° 0 mm 1 m/S 754 mmHg 46%
    16:00 +34°C° 0 mm 1 m/S 753 mmHg 47%
    17:00 +32°C° 0 mm 1 m/S 753 mmHg 51%
    18:00 +31°C° 0 mm 1 m/S 753 mmHg 56%
    19:00 +29°C° 0 mm 1 m/S 754 mmHg 61%
    20:00 +29°C° 0 mm 1 m/S 754 mmHg 62%
    21:00 +28°C° 0 mm 1 m/S 754 mmHg 63%
    22:00 +27°C° 0 mm 1 m/S 755 mmHg 65%
    23:00 +27°C° 0 mm 1 m/S 755 mmHg 66%

    übermorgen, 16 August, Donnerstag

    Zeit Temperatur Niederschläge Wind Luftdruck Luftfeuchtigkeit
    00:00 +26°C° 0 mm 1 m/S 755 mmHg 68%
    01:00 +26°C° 0 mm 1 m/S 755 mmHg 70%
    02:00 +26°C° 0 mm 1 m/S 755 mmHg 73%
    03:00 +25°C° 0 mm 1 m/S 755 mmHg 75%
    04:00 +25°C° 0 mm 1 m/S 755 mmHg 77%
    05:00 +26°C° 0 mm 1 m/S 755 mmHg 77%
    06:00 +26°C° 0 mm 1 m/S 755 mmHg 77%
    07:00 +27°C° 0 mm 1 m/S 756 mmHg 77%
    08:00 +29°C° 0 mm 1 m/S 756 mmHg 71%
    09:00 +31°C° 0 mm 2 m/S 756 mmHg 64%
    10:00 +34°C° 0 mm 2 m/S 756 mmHg 57%
    11:00 +35°C° 0 mm 2 m/S 756 mmHg 53%
    12:00 +36°C° 0 mm 3 m/S 756 mmHg 48%
    13:00 +37°C° 0 mm 3 m/S 756 mmHg 43%
    14:00 +36°C° 0 mm 3 m/S 755 mmHg 46%
    15:00 +36°C° 0 mm 3 m/S 755 mmHg 48%
    16:00 +36°C° 0 mm 3 m/S 755 mmHg 51%
    17:00 +34°C° 0 mm 3 m/S 755 mmHg 56%
    18:00 +33°C° 0 mm 3 m/S 755 mmHg 61%
    19:00 +31°C° 0 mm 2 m/S 755 mmHg 66%
    20:00 +30°C° 0 mm 2 m/S 755 mmHg 67%
    21:00 +29°C° 0 mm 2 m/S 755 mmHg 68%
    22:00 +29°C° 0 mm 2 m/S 756 mmHg 69%
    23:00 +28°C° 0 mm 3 m/S 755 mmHg 71%

    17 August, Freitag

    Zeit Temperatur Niederschläge Wind Luftdruck Luftfeuchtigkeit
    00:00 +28°C° 0 mm 3 m/S 755 mmHg 72%
    01:00 +27°C° 0 mm 3 m/S 755 mmHg 74%
    02:00 +27°C° 0 mm 3 m/S 755 mmHg 75%
    03:00 +27°C° 0 mm 3 m/S 755 mmHg 76%
    04:00 +27°C° 0 mm 3 m/S 755 mmHg 77%
    05:00 +27°C° 0 mm 3 m/S 755 mmHg 78%
    06:00 +27°C° 0 mm 3 m/S 755 mmHg 79%
    07:00 +27°C° 0 mm 3 m/S 756 mmHg 80%
    08:00 +29°C° 0,2 mm 3 m/S 755 mmHg 73%
    09:00 +31°C° 0,2 mm 3 m/S 755 mmHg 66%
    10:00 +34°C° 0,2 mm 4 m/S 755 mmHg 59%
    11:00 +35°C° 0 mm 4 m/S 755 mmHg 55%
    12:00 +36°C° 0 mm 4 m/S 754 mmHg 51%
    13:00 +37°C° 0 mm 4 m/S 754 mmHg 47%
    14:00 +37°C° 0 mm 4 m/S 754 mmHg 48%
    15:00 +36°C° 0 mm 4 m/S 753 mmHg 50%
    16:00 +36°C° 0 mm 4 m/S 753 mmHg 51%
    17:00 +35°C° 0 mm 4 m/S 753 mmHg 57%
    18:00 +33°C° 0 mm 3 m/S 753 mmHg 62%
    19:00 +31°C° 0 mm 3 m/S 753 mmHg 67%
    20:00 +30°C° 1,1 mm 3 m/S 753 mmHg 73%
    21:00 +29°C° 1,1 mm 3 m/S 753 mmHg 78%
    22:00 +28°C° 1,1 mm 3 m/S 753 mmHg 83%
    23:00 +27°C° 0,6 mm 3 m/S 753 mmHg 85%

    18 August, Samstag

    Zeit Temperatur Niederschläge Wind Luftdruck Luftfeuchtigkeit
    00:00 +27°C° 0,6 mm 3 m/S 753 mmHg 87%
    01:00 +27°C° 0,6 mm 3 m/S 753 mmHg 88%
    02:00 +26°C° 0 mm 2 m/S 752 mmHg 88%
    03:00 +26°C° 0 mm 2 m/S 752 mmHg 89%
    04:00 +26°C° 0 mm 2 m/S 752 mmHg 89%
    05:00 +26°C° 0 mm 2 m/S 752 mmHg 88%
    06:00 +26°C° 0 mm 2 m/S 752 mmHg 87%
    07:00 +27°C° 0 mm 2 m/S 752 mmHg 87%
    08:00 +28°C° 0 mm 2 m/S 752 mmHg 80%
    09:00 +30°C° 0 mm 3 m/S 752 mmHg 73%
    10:00 +33°C° 0 mm 3 m/S 752 mmHg 66%
    11:00 +33°C° 0,2 mm 3 m/S 752 mmHg 63%
    12:00 +34°C° 0,2 mm 3 m/S 751 mmHg 59%
    13:00 +35°C° 0,2 mm 3 m/S 751 mmHg 56%
    14:00 +35°C° 0,3 mm 3 m/S 750 mmHg 56%
    15:00 +35°C° 0,3 mm 3 m/S 750 mmHg 57%
    16:00 +35°C° 0,3 mm 2 m/S 750 mmHg 57%
    17:00 +34°C° 0,4 mm 2 m/S 750 mmHg 62%
    18:00 +31°C° 0,4 mm 2 m/S 750 mmHg 67%
    19:00 +30°C° 0,4 mm 2 m/S 750 mmHg 71%
    20:00 +29°C° 0,5 mm 3 m/S 750 mmHg 74%
    21:00 +29°C° 0,5 mm 3 m/S 750 mmHg 76%
    22:00 +28°C° 0,5 mm 3 m/S 750 mmHg 78%
    23:00 +28°C° 1 mm 3 m/S 750 mmHg 81%

    19 August, Sonntag

    Zeit Temperatur Niederschläge Wind Luftdruck Luftfeuchtigkeit
    00:00 +27°C° 1 mm 2 m/S 750 mmHg 85%
    01:00 +26°C° 1 mm 2 m/S 750 mmHg 88%
    02:00 +26°C° 0 mm 2 m/S 750 mmHg 89%
    03:00 +25°C° 0 mm 2 m/S 750 mmHg 90%
    04:00 +25°C° 0 mm 2 m/S 750 mmHg 91%
    05:00 +25°C° 0 mm 2 m/S 750 mmHg 90%
    06:00 +26°C° 0 mm 2 m/S 750 mmHg 89%
    07:00 +26°C° 0 mm 2 m/S 751 mmHg 89%
    08:00 +28°C° 0 mm 2 m/S 751 mmHg 81%
    09:00 +30°C° 0 mm 2 m/S 751 mmHg 74%
    10:00 +31°C° 0 mm 2 m/S 751 mmHg 67%
    11:00 +33°C° 1,5 mm 3 m/S 751 mmHg 66%
    12:00 +33°C° 1,5 mm 3 m/S 750 mmHg 65%
    13:00 +34°C° 1,5 mm 3 m/S 750 mmHg 64%
    14:00 +33°C° 1,4 mm 3 m/S 750 mmHg 67%
    15:00 +33°C° 1,4 mm 3 m/S 749 mmHg 69%
    16:00 +33°C° 1,4 mm 3 m/S 749 mmHg 72%
    17:00 +30°C° 0,8 mm 2 m/S 749 mmHg 76%
    18:00 +29°C° 0,8 mm 2 m/S 750 mmHg 80%
    19:00 +28°C° 0,8 mm 2 m/S 750 mmHg 83%
    20:00 +27°C° 0,7 mm 2 m/S 750 mmHg 85%
    21:00 +27°C° 0,7 mm 2 m/S 750 mmHg 87%
    22:00 +26°C° 0,7 mm 1 m/S 751 mmHg 89%
    23:00 +26°C° 0,3 mm 1 m/S 751 mmHg 88%
    Mehr zeigen